SL-24 R/B, 40047

Orbit data source: Space-Track

SL-24 R/B, 40047 is space debris in SSO originally from a launch on Thu, 19 Jun 2014 UTC launched from the Orenburg, Russia (OREN). Debris objects in space refer to the collection of defunct objects orbiting the Earth. Examples of debris include non-operational satellites, rocket bodies, and fragments generated from explosions, collisions, or faulty payload assembly.

Loading next visibility...
Identifier
40047, 2014-033AP
Orbit
SSO
Country
Flag of CISCIS
Related business
Manufacturer
Yuzhnoe
Mission
Spacecraft
Bus & Motor
15A18-BR, Unknown motor
Mass
~1,000 kg wet, ~1,000 kg dry
Launch date (UTC)
2014-06-19 (11 years ago)
Launch vehicle
Unknown
Launch site
Orenburg, Russia (OREN)
Object type
Payload
Rocket body
Debris
Shape & HBR
Cyl, 1.5 m
Radar Cross Section
10.603 m², Large (>1 m²)

Expand to show TLE details & history
Last TLE update: 9 hours ago

TLE from 9 hours ago
0 SL-24 R/B
1 40047U 14033AP  25312.65068748  .00000088  00000-0  53149-4 0  9995
2 40047  97.8942 207.2211 0568086 163.5968 198.4435 13.61917765566010
Epoch: 2025-11-08T15:36Z
TLE epoch observation values (Epoch: 2025-11-08T15:36:59.398Z)
Latitude
-0.00005°
Longitude
-75.10363°
Altitude
1,433.056 km
Speed
6.949 km/s
True Right ascension
13h 48m 53s
True Declination
0° 00' 00"
Sunlit
Object was in daylight at epoch
Visualization orbit readout
Latitude
Unknown
Longitude
Unknown
Altitude
Unknown
Speed
Unknown
Apparent Right ascension
Unknown
Apparent Declination
Unknown
Sunlit
N/A
Visualization observer readout
Local Sidereal Time
21:18:01
Azimuth
Unknown
Elevation
Unknown
Doppler factor
Unknown
Orbital elements
Apogee altitude
1,446.532 km
Perigee altitude
605.304 km
Semi-major axis
7,404.055 km
Eccentricity
0.05681
Inclination
97.8942°
RAAN
207.2211°
Arg. of periapsis
163.5968°
True anomaly
196.51464°
Mean anomaly
198.4435°
Eccentric anomaly
197.46655°
Mean motion
3.40674 °/min
Orbital period
105.67 mins
BSTAR
0.000053149
Loading maneuver chart data...
Computing Atmospheric mass density...
Loading historical data...
Loading historical data...
Loading historical data...
Loading historical data...
Loading historical data...
Loading historical data...
Loading historical data...

Documentation

Showing up to 5 results
|